Springfield, OH

6:48 PM EDT on May 24, 2017 (GMT -0400)
Springfield-Beckley Municipal

Weather History for KSGH - August, 2014

Change the Weather History Date:

Wednesday, August 20, 2014

  Actual Average (KFFO) Record (KFFO)
Temperature  
Mean Temperature 76 °F -  
Max Temperature 88 °F 81 °F 96 °F (2005)
Min Temperature 65 °F 60 °F 48 °F (1998)
Cooling Degree Days 12    
Growing Degree Days 26 (Base 50)    
Moisture  
Dew Point 68 °F    
Average Humidity 79    
Maximum Humidity 97    
Minimum Humidity 48    
Precipitation  
Precipitation 0.04 in - - ()
Sea Level Pressure  
Sea Level Pressure 29.91 in    
Wind  
Wind Speed 8 mph (WSW)    
Max Wind Speed 15 mph    
Max Gust Speed 22 mph    
Visibility 8 miles    
Events Rain , Thunderstorm    
Averages and records for this station are not official NWS values.
T = Trace of Precipitation, MM = Missing Value Source: NWS Daily Summary

Daily Weather History Graph

Daily Weather History Graph

Search for Another Location

Airport or City:

Trip Planner

Search our weather history database for the weather conditions in past years. The results will help you decide how hot, cold, wet, or windy it might be!

Date:

Astronomy

Aug. 20, 2014 Rise Set
Actual Time 6:52 AM EDT 8:24 PM EDT
Civil Twilight 6:23 AM EDT 8:53 PM EDT
Nautical Twilight 5:49 AM EDT 9:27 PM EDT
Astronomical Twilight 5:12 AM EDT 10:03 PM EDT
Moon 2:31 AM EDT (8/20) 5:08 PM EDT (8/20)
Length of Visible Light 14h 29m
Length of Day
13h 32m
Waning Crescent, 21% of the Moon is Illuminated
Aug 20
Waning Crescent
Aug 25
New
Sep 2
First Quarter
Sep 8
Full
Sep 15
Last Quarter

Hourly Weather History & Observations

Time (EDT) Temp. Heat Index Dew Point Humidity Pressure Visibility Wind Dir Wind Speed Gust Speed Precip Events Conditions
12:56 AM 70.9 °F - 68.9 °F 93% 29.83 in 8.0 mi South 3.5 mph - 0.00 in Rain Light Rain
1:56 AM 72.9 °F - 68.9 °F 87% 29.82 in 7.0 mi South 6.9 mph - 0.00 in Rain Light Rain
2:46 AM 73.4 °F - 69.8 °F 88% 29.85 in 5.0 mi SSW 11.5 mph - 0.00 in Rain , Thunderstorm Light Thunderstorms and Rain
2:56 AM 72.9 °F - 70.0 °F 91% 29.83 in 5.0 mi SW 11.5 mph - 0.00 in Rain , Thunderstorm Light Thunderstorms and Rain
3:19 AM 71.6 °F - 69.8 °F 94% 29.85 in 4.0 mi SW 10.4 mph - 0.04 in Rain , Thunderstorm Light Thunderstorms and Rain
3:26 AM 71.6 °F - 68.0 °F 88% 29.85 in 6.0 mi SSW 8.1 mph - 0.04 in Rain Light Rain
3:36 AM 69.8 °F - 66.2 °F 88% 29.83 in 7.0 mi South 10.4 mph - 0.04 in Rain , Thunderstorm Light Thunderstorms and Rain
3:56 AM 68.9 °F - 64.9 °F 87% 29.86 in 8.0 mi WSW 13.8 mph - 0.04 in Rain Light Rain
4:04 AM 69.8 °F - 66.2 °F 88% 29.88 in 9.0 mi West 5.8 mph - 0.00 in Rain Light Rain
4:56 AM 65.8 °F - 64.9 °F 97% 29.86 in 9.0 mi WNW 6.9 mph - 0.00 in Rain Light Rain
5:56 AM 65.8 °F - 63.9 °F 93% 29.87 in 10.0 mi WSW 6.9 mph - 0.00 in Rain Light Rain
6:56 AM 65.8 °F - 63.9 °F 93% 29.89 in 10.0 mi SW 4.6 mph - 0.00 in Rain Light Rain
7:56 AM 65.8 °F - 64.9 °F 97% 29.90 in 8.0 mi SW 5.8 mph - 0.00 in Rain Light Rain
8:56 AM 68.9 °F - 65.8 °F 90% 29.92 in 9.0 mi WSW 9.2 mph - 0.00 in Rain Light Rain
9:56 AM 72.9 °F - 68.0 °F 85% 29.93 in 8.0 mi Variable 5.8 mph - 0.00 in Rain Light Rain
10:56 AM 77.0 °F - 70.9 °F 81% 29.94 in 9.0 mi SW 6.9 mph - 0.00 in Rain Light Rain
11:56 AM 81.0 °F 85.2 °F 72.0 °F 74% 29.94 in 9.0 mi WSW 9.2 mph - 0.00 in Rain Light Rain
12:20 PM 82.4 °F 87.2 °F 71.6 °F 70% 29.97 in 9.0 mi WSW 10.4 mph - 0.00 in Rain Light Rain
12:56 PM 81.9 °F 86.0 °F 70.9 °F 69% 29.94 in 9.0 mi SW 8.1 mph - 0.00 in Rain Light Rain
1:56 PM 84.9 °F 88.8 °F 68.9 °F 59% 29.94 in 9.0 mi West 13.8 mph - 0.00 in Rain Light Rain
2:56 PM 86.9 °F 89.6 °F 66.9 °F 51% 29.95 in 10.0 mi West 12.7 mph - 0.00 in Rain Light Rain
3:56 PM 88.0 °F 90.7 °F 66.9 °F 49% 29.94 in 10.0 mi West 13.8 mph - 0.00 in Rain Light Rain
4:56 PM 86.9 °F 88.6 °F 64.9 °F 48% 29.95 in 10.0 mi West 15.0 mph 21.9 mph 0.00 in Rain Light Rain
5:56 PM 86.0 °F 87.6 °F 64.9 °F 49% 29.94 in 10.0 mi West 11.5 mph - 0.00 in Rain Light Rain
6:56 PM 83.8 °F 85.6 °F 64.9 °F 53% 29.92 in 9.0 mi WNW 6.9 mph - 0.00 in Rain Light Rain
7:56 PM 77.9 °F - 68.9 °F 74% 29.93 in 10.0 mi WSW 4.6 mph - 0.00 in Rain Light Rain
8:56 PM 74.8 °F - 65.8 °F 73% 29.95 in 10.0 mi South 4.6 mph - 0.00 in Rain Light Rain
9:56 PM 72.0 °F - 68.0 °F 87% 30.00 in 10.0 mi SSW 8.1 mph - 0.00 in Rain Light Rain
10:56 PM 72.0 °F - 68.9 °F 90% 30.03 in 9.0 mi WSW 8.1 mph - 0.00 in Rain Light Rain
11:56 PM 70.0 °F - 66.9 °F 90% 30.03 in 10.0 mi West 8.1 mph - 0.00 in Rain Light Rain